RADSAT-G

Last updated on Tue Apr 06 2021 00:02:09 GMT+0000 (Coordinated Universal Time)

1 43553U 98067PB 21094.62928569 .03890718 12239-4 60024-3 0 9995 2 43553 51.6239 227.0840 0009894 313.2518 46.7680 16.33102743156209

Satellite not in orbit

RADSAT-G